WXM80 ListenWXM80 Stop

You find our weather info also at:

UK Metoffice

WeatherCloud

Weather Underground

Northeastern Weather Network

AWEKAS

Citizen Weather Observer Program (CWOP)

HAMweather, WeatherForYou, PWS Weather


Weather Underground History page Text

Daily Summary for February 1, 2018 Units:  Both    English   Metric
« Previous Day
Next Day »
Daily Weekly Monthly Yearly Custom
  High: Low: Average:
Temperature: TemperatureF °F /  -17.8 °C 32.2 °F /  0.1 °C 37.8 °F /  3.2 °C
Dew Point: DewpointF °F /  -17.8 °C 23.0 °F /  -5 °C 30.1 °F /  -1.1 °C
Humidity: Humidity % 62 % 74 %
Wind Speed: WindSpeedMPH mph /  0 km/h - 2.1 mph /  3.4 km/h
Wind Gust: WindSpeedGustMPH mph /  0 km/h - -
Wind:- - SSW
Pressure: PressureIn in /  0 hPa 29.59 in /  1001.9 hPa -
Precipitation: 0.00 in /  0 mm    
Historical Graphs
 
 
Tabular Data for February 1, 2018
Time Temperature Dew Point Pressure Wind Wind Speed Wind Gust Humidity Rainfall Rate (Hourly)
TemperatureF °F /  -17.8 °C DewpointF °F /  -17.8 °C PressureIn in /  0 hPa Calm     Humidity % HourlyPrecipIn in /  0 mm
00:02 32.4 °F /  0.2 °C 23.7 °F /  -4.6 °C 29.82 in /  1009.7 hPa SSW 6.5 mph /  10.5 km/h 8.1 mph /  13 km/h 70 % 0.00 in /  0 mm
00:07 32.4 °F /  0.2 °C 23.7 °F /  -4.6 °C 29.82 in /  1009.7 hPa SW 5.6 mph /  9 km/h 8.1 mph /  13 km/h 70 % 0.00 in /  0 mm
00:12 32.4 °F /  0.2 °C 23.7 °F /  -4.6 °C 29.82 in /  1009.7 hPa SSW 5.5 mph /  8.9 km/h 10.4 mph /  16.7 km/h 70 % 0.00 in /  0 mm
00:17 32.4 °F /  0.2 °C 23.4 °F /  -4.8 °C 29.82 in /  1009.7 hPa SW 8.1 mph /  13 km/h 13.8 mph /  22.2 km/h 69 % 0.00 in /  0 mm
00:22 32.4 °F /  0.2 °C 23.4 °F /  -4.8 °C 29.82 in /  1009.7 hPa SW 6.9 mph /  11.1 km/h 10.0 mph /  16.1 km/h 69 % 0.00 in /  0 mm
00:27 32.4 °F /  0.2 °C 23.0 °F /  -5 °C 29.83 in /  1010 hPa WSW 5.7 mph /  9.2 km/h 8.1 mph /  13 km/h 68 % 0.00 in /  0 mm
00:32 32.4 °F /  0.2 °C 23.0 °F /  -5 °C 29.82 in /  1009.7 hPa SW 2.3 mph /  3.7 km/h 4.0 mph /  6.4 km/h 68 % 0.00 in /  0 mm
00:37 32.4 °F /  0.2 °C 23.0 °F /  -5 °C 29.83 in /  1010 hPa SW 5.4 mph /  8.7 km/h 11.5 mph /  18.5 km/h 68 % 0.00 in /  0 mm
00:43 32.4 °F /  0.2 °C 23.0 °F /  -5 °C 29.83 in /  1010 hPa SSW 3.7 mph /  6 km/h 9.0 mph /  14.5 km/h 68 % 0.00 in /  0 mm
00:48 32.4 °F /  0.2 °C 23.4 °F /  -4.8 °C 29.82 in /  1009.7 hPa WSW 3.5 mph /  5.6 km/h 6.9 mph /  11.1 km/h 69 % 0.00 in /  0 mm
00:53 32.4 °F /  0.2 °C 23.4 °F /  -4.8 °C 29.82 in /  1009.7 hPa WSW 2.3 mph /  3.7 km/h 3.5 mph /  5.6 km/h 69 % 0.00 in /  0 mm
00:58 32.4 °F /  0.2 °C 23.4 °F /  -4.8 °C 29.82 in /  1009.7 hPa SW 3.9 mph /  6.3 km/h 6.9 mph /  11.1 km/h 69 % 0.00 in /  0 mm
01:03 32.4 °F /  0.2 °C 23.4 °F /  -4.8 °C 29.81 in /  1009.4 hPa SW 1.2 mph /  1.9 km/h 5.8 mph /  9.3 km/h 69 % 0.00 in /  0 mm
01:08 32.3 °F /  0.2 °C 23.3 °F /  -4.8 °C 29.81 in /  1009.4 hPa SSW 4.7 mph /  7.6 km/h 6.9 mph /  11.1 km/h 69 % 0.00 in /  0 mm
01:09 32.3 °F /  0.2 °C 23.3 °F /  -4.8 °C 29.81 in /  1009.4 hPa SW 1.9 mph /  3.1 km/h 4.0 mph /  6.4 km/h 69 % 0.00 in /  0 mm
01:14 32.3 °F /  0.2 °C 23.3 °F /  -4.8 °C 29.81 in /  1009.4 hPa SW 5.7 mph /  9.2 km/h 6.9 mph /  11.1 km/h 69 % 0.00 in /  0 mm
01:19 32.3 °F /  0.2 °C 23.3 °F /  -4.8 °C 29.81 in /  1009.4 hPa South 3.7 mph /  6 km/h 6.9 mph /  11.1 km/h 69 % 0.00 in /  0 mm
01:25 32.3 °F /  0.2 °C 23.6 °F /  -4.7 °C 29.81 in /  1009.4 hPa WSW 5.2 mph /  8.4 km/h 8.1 mph /  13 km/h 70 % 0.00 in /  0 mm
01:30 32.2 °F /  0.1 °C 23.5 °F /  -4.7 °C 29.80 in /  1009 hPa WSW 3.1 mph /  5 km/h 6.9 mph /  11.1 km/h 70 % 0.00 in /  0 mm
01:35 32.2 °F /  0.1 °C 23.5 °F /  -4.7 °C 29.80 in /  1009 hPa SSW 3.0 mph /  4.8 km/h 7.0 mph /  11.3 km/h 70 % 0.00 in /  0 mm
01:40 32.2 °F /  0.1 °C 23.5 °F /  -4.7 °C 29.80 in /  1009 hPa SW 3.7 mph /  6 km/h 6.9 mph /  11.1 km/h 70 % 0.00 in /  0 mm
01:45 32.2 °F /  0.1 °C 23.8 °F /  -4.6 °C 29.80 in /  1009 hPa SW 3.6 mph /  5.8 km/h 6.9 mph /  11.1 km/h 71 % 0.00 in /  0 mm
01:50 32.2 °F /  0.1 °C 23.8 °F /  -4.6 °C 29.80 in /  1009 hPa SW 2.5 mph /  4 km/h 4.6 mph /  7.4 km/h 71 % 0.00 in /  0 mm
01:55 32.2 °F /  0.1 °C 23.8 °F /  -4.6 °C 29.80 in /  1009 hPa SSW 3.3 mph /  5.3 km/h 5.0 mph /  8 km/h 71 % 0.00 in /  0 mm
02:00 32.2 °F /  0.1 °C 23.8 °F /  -4.6 °C 29.79 in /  1008.7 hPa SSW 4.7 mph /  7.6 km/h 8.0 mph /  12.9 km/h 71 % 0.00 in /  0 mm
02:05 32.3 °F /  0.2 °C 24.3 °F /  -4.3 °C 29.80 in /  1009 hPa SW 3.9 mph /  6.3 km/h 5.0 mph /  8 km/h 72 % 0.00 in /  0 mm
02:10 32.3 °F /  0.2 °C 24.3 °F /  -4.3 °C 29.80 in /  1009 hPa SW 1.2 mph /  1.9 km/h 3.5 mph /  5.6 km/h 72 % 0.00 in /  0 mm
02:15 32.3 °F /  0.2 °C 24.3 °F /  -4.3 °C 29.80 in /  1009 hPa SW 2.6 mph /  4.2 km/h 4.6 mph /  7.4 km/h 72 % 0.00 in /  0 mm
02:20 32.4 °F /  0.2 °C 24.7 °F /  -4.1 °C 29.80 in /  1009 hPa SSW 3.5 mph /  5.6 km/h 5.0 mph /  8 km/h 73 % 0.00 in /  0 mm
02:25 32.5 °F /  0.3 °C 24.8 °F /  -4 °C 29.79 in /  1008.7 hPa SSW 3.4 mph /  5.5 km/h 8.1 mph /  13 km/h 73 % 0.00 in /  0 mm
02:30 32.5 °F /  0.3 °C 24.8 °F /  -4 °C 29.79 in /  1008.7 hPa SW 4.9 mph /  7.9 km/h 7.0 mph /  11.3 km/h 73 % 0.00 in /  0 mm
02:35 32.6 °F /  0.3 °C 24.9 °F /  -3.9 °C 29.78 in /  1008.4 hPa SSW 2.9 mph /  4.7 km/h 5.0 mph /  8 km/h 73 % 0.00 in /  0 mm
02:40 32.6 °F /  0.3 °C 24.9 °F /  -3.9 °C 29.78 in /  1008.4 hPa SSW 5.6 mph /  9 km/h 6.9 mph /  11.1 km/h 73 % 0.00 in /  0 mm
02:46 32.7 °F /  0.4 °C 25.0 °F /  -3.9 °C 29.78 in /  1008.4 hPa WSW 5.7 mph /  9.2 km/h 5.8 mph /  9.3 km/h 73 % 0.00 in /  0 mm
02:51 32.8 °F /  0.4 °C 25.1 °F /  -3.8 °C 29.78 in /  1008.4 hPa SSW 3.0 mph /  4.8 km/h 12.0 mph /  19.3 km/h 73 % 0.00 in /  0 mm
02:56 32.9 °F /  0.5 °C 25.2 °F /  -3.8 °C 29.78 in /  1008.4 hPa SW 2.0 mph /  3.2 km/h 9.0 mph /  14.5 km/h 73 % 0.00 in /  0 mm
03:00 32.9 °F /  0.5 °C 25.5 °F /  -3.6 °C 29.79 in /  1008.7 hPa SW 3.5 mph /  5.6 km/h 8.1 mph /  13 km/h 74 % 0.00 in /  0 mm
03:05 32.9 °F /  0.5 °C 25.5 °F /  -3.6 °C 29.78 in /  1008.4 hPa SW 1.7 mph /  2.7 km/h 5.8 mph /  9.3 km/h 74 % 0.00 in /  0 mm
03:10 32.9 °F /  0.5 °C 25.5 °F /  -3.6 °C 29.79 in /  1008.7 hPa SSW 1.5 mph /  2.4 km/h 4.6 mph /  7.4 km/h 74 % 0.00 in /  0 mm
03:15 32.9 °F /  0.5 °C 25.5 °F /  -3.6 °C 29.79 in /  1008.7 hPa SW 3.1 mph /  5 km/h 4.6 mph /  7.4 km/h 74 % 0.00 in /  0 mm
03:20 33.0 °F /  0.6 °C 25.6 °F /  -3.6 °C 29.79 in /  1008.7 hPa SW 4.0 mph /  6.4 km/h 6.0 mph /  9.7 km/h 74 % 0.00 in /  0 mm
03:25 33.0 °F /  0.6 °C 25.6 °F /  -3.6 °C 29.78 in /  1008.4 hPa SW 3.9 mph /  6.3 km/h 6.9 mph /  11.1 km/h 74 % 0.00 in /  0 mm
03:31 33.0 °F /  0.6 °C 25.9 °F /  -3.4 °C 29.78 in /  1008.4 hPa SSW 5.0 mph /  8 km/h 8.0 mph /  12.9 km/h 75 % 0.00 in /  0 mm
03:36 33.0 °F /  0.6 °C 25.9 °F /  -3.4 °C 29.78 in /  1008.4 hPa SW 3.5 mph /  5.6 km/h 8.1 mph /  13 km/h 75 % 0.00 in /  0 mm
03:41 33.1 °F /  0.6 °C 26.0 °F /  -3.3 °C 29.78 in /  1008.4 hPa SSW 6.2 mph /  10 km/h 9.2 mph /  14.8 km/h 75 % 0.00 in /  0 mm
03:46 33.2 °F /  0.7 °C 26.1 °F /  -3.3 °C 29.78 in /  1008.4 hPa WSW 1.5 mph /  2.4 km/h 5.0 mph /  8 km/h 75 % 0.00 in /  0 mm
03:51 33.2 °F /  0.7 °C 26.1 °F /  -3.3 °C 29.78 in /  1008.4 hPa SSW 2.1 mph /  3.4 km/h 6.9 mph /  11.1 km/h 75 % 0.00 in /  0 mm
03:56 33.2 °F /  0.7 °C 26.1 °F /  -3.3 °C 29.77 in /  1008 hPa SW 4.4 mph /  7.1 km/h 8.1 mph /  13 km/h 75 % 0.00 in /  0 mm
04:01 33.3 °F /  0.7 °C 26.2 °F /  -3.2 °C 29.77 in /  1008 hPa SSW 3.7 mph /  6 km/h 5.8 mph /  9.3 km/h 75 % 0.00 in /  0 mm
04:06 33.3 °F /  0.7 °C 26.2 °F /  -3.2 °C 29.77 in /  1008 hPa SSW 2.2 mph /  3.5 km/h 5.8 mph /  9.3 km/h 75 % 0.00 in /  0 mm
04:11 33.3 °F /  0.7 °C 26.2 °F /  -3.2 °C 29.77 in /  1008 hPa SW 4.5 mph /  7.2 km/h 8.1 mph /  13 km/h 75 % 0.00 in /  0 mm
04:16 33.4 °F /  0.8 °C 26.3 °F /  -3.2 °C 29.77 in /  1008 hPa Calm   1.2 mph /  1.9 km/h 75 % 0.00 in /  0 mm
04:21 33.4 °F /  0.8 °C 26.3 °F /  -3.2 °C 29.77 in /  1008 hPa SW 3.8 mph /  6.1 km/h 6.9 mph /  11.1 km/h 75 % 0.00 in /  0 mm
04:27 33.5 °F /  0.8 °C 26.4 °F /  -3.1 °C 29.77 in /  1008 hPa SW 2.5 mph /  4 km/h 4.6 mph /  7.4 km/h 75 % 0.00 in /  0 mm
04:32 33.6 °F /  0.9 °C 26.5 °F /  -3.1 °C 29.76 in /  1007.7 hPa SW 2.6 mph /  4.2 km/h 4.6 mph /  7.4 km/h 75 % 0.00 in /  0 mm
04:37 33.7 °F /  0.9 °C 26.6 °F /  -3 °C 29.76 in /  1007.7 hPa South 4.2 mph /  6.8 km/h 7.0 mph /  11.3 km/h 75 % 0.00 in /  0 mm
04:42 33.7 °F /  0.9 °C 26.6 °F /  -3 °C 29.76 in /  1007.7 hPa SW 1.0 mph /  1.6 km/h 5.8 mph /  9.3 km/h 75 % 0.00 in /  0 mm
04:47 33.8 °F /  1 °C 26.7 °F /  -2.9 °C 29.76 in /  1007.7 hPa SW 3.0 mph /  4.8 km/h 4.6 mph /  7.4 km/h 75 % 0.00 in /  0 mm
04:52 33.8 °F /  1 °C 26.7 °F /  -2.9 °C 29.76 in /  1007.7 hPa SSW 2.3 mph /  3.7 km/h 4.6 mph /  7.4 km/h 75 % 0.00 in /  0 mm
04:57 33.9 °F /  1.1 °C 26.8 °F /  -2.9 °C 29.76 in /  1007.7 hPa SSW 1.9 mph /  3.1 km/h 6.0 mph /  9.7 km/h 75 % 0.00 in /  0 mm
05:02 33.9 °F /  1.1 °C 26.8 °F /  -2.9 °C 29.76 in /  1007.7 hPa SW 0.2 mph /  0.3 km/h 2.3 mph /  3.7 km/h 75 % 0.00 in /  0 mm
05:07 34.0 °F /  1.1 °C 26.9 °F /  -2.8 °C 29.76 in /  1007.7 hPa SW 0.7 mph /  1.1 km/h 3.5 mph /  5.6 km/h 75 % 0.00 in /  0 mm
05:12 34.0 °F /  1.1 °C 26.9 °F /  -2.8 °C 29.76 in /  1007.7 hPa WSW 3.1 mph /  5 km/h 4.0 mph /  6.4 km/h 75 % 0.00 in /  0 mm
05:17 34.0 °F /  1.1 °C 26.9 °F /  -2.8 °C 29.75 in /  1007.3 hPa SSW 4.0 mph /  6.4 km/h 5.8 mph /  9.3 km/h 75 % 0.00 in /  0 mm
05:22 34.0 °F /  1.1 °C 26.9 °F /  -2.8 °C 29.75 in /  1007.3 hPa SSW 4.2 mph /  6.8 km/h 8.0 mph /  12.9 km/h 75 % 0.00 in /  0 mm
05:28 34.1 °F /  1.2 °C 26.7 °F /  -2.9 °C 29.76 in /  1007.7 hPa WSW 2.3 mph /  3.7 km/h 3.5 mph /  5.6 km/h 74 % 0.00 in /  0 mm
05:33 34.1 °F /  1.2 °C 26.7 °F /  -2.9 °C 29.75 in /  1007.3 hPa SW 2.8 mph /  4.5 km/h 6.9 mph /  11.1 km/h 74 % 0.00 in /  0 mm
05:38 34.2 °F /  1.2 °C 27.1 °F /  -2.7 °C 29.75 in /  1007.3 hPa SW 3.1 mph /  5 km/h 6.9 mph /  11.1 km/h 75 % 0.00 in /  0 mm
05:43 34.2 °F /  1.2 °C 27.1 °F /  -2.7 °C 29.76 in /  1007.7 hPa SW 3.5 mph /  5.6 km/h 8.1 mph /  13 km/h 75 % 0.00 in /  0 mm
05:48 34.2 °F /  1.2 °C 27.1 °F /  -2.7 °C 29.76 in /  1007.7 hPa SW 2.4 mph /  3.9 km/h 3.5 mph /  5.6 km/h 75 % 0.00 in /  0 mm
05:53 34.3 °F /  1.3 °C 27.2 °F /  -2.7 °C 29.75 in /  1007.3 hPa SW 1.0 mph /  1.6 km/h 3.5 mph /  5.6 km/h 75 % 0.00 in /  0 mm
05:58 34.3 °F /  1.3 °C 27.2 °F /  -2.7 °C 29.76 in /  1007.7 hPa SSW 2.6 mph /  4.2 km/h 3.5 mph /  5.6 km/h 75 % 0.00 in /  0 mm
06:03 34.4 °F /  1.3 °C 27.3 °F /  -2.6 °C 29.75 in /  1007.3 hPa SW 3.1 mph /  5 km/h 4.0 mph /  6.4 km/h 75 % 0.00 in /  0 mm
06:08 34.4 °F /  1.3 °C 27.3 °F /  -2.6 °C 29.76 in /  1007.7 hPa SSW 2.0 mph /  3.2 km/h 2.3 mph /  3.7 km/h 75 % 0.00 in /  0 mm
06:13 34.4 °F /  1.3 °C 27.3 °F /  -2.6 °C 29.76 in /  1007.7 hPa WSW 3.2 mph /  5.1 km/h 4.6 mph /  7.4 km/h 75 % 0.00 in /  0 mm
06:18 34.4 °F /  1.3 °C 27.3 °F /  -2.6 °C 29.76 in /  1007.7 hPa WSW 1.3 mph /  2.1 km/h 2.0 mph /  3.2 km/h 75 % 0.00 in /  0 mm
06:24 34.4 °F /  1.3 °C 27.3 °F /  -2.6 °C 29.76 in /  1007.7 hPa WSW 2.4 mph /  3.9 km/h 4.6 mph /  7.4 km/h 75 % 0.00 in /  0 mm
06:29 34.4 °F /  1.3 °C 27.3 °F /  -2.6 °C 29.76 in /  1007.7 hPa SW 0.6 mph /  1 km/h 3.5 mph /  5.6 km/h 75 % 0.00 in /  0 mm
06:34 34.5 °F /  1.4 °C 27.1 °F /  -2.7 °C 29.76 in /  1007.7 hPa SSW 2.8 mph /  4.5 km/h 3.5 mph /  5.6 km/h 74 % 0.00 in /  0 mm
06:39 34.6 °F /  1.4 °C 27.5 °F /  -2.5 °C 29.76 in /  1007.7 hPa SSW 1.8 mph /  2.9 km/h 4.0 mph /  6.4 km/h 75 % 0.00 in /  0 mm
06:44 34.6 °F /  1.4 °C 27.2 °F /  -2.7 °C 29.76 in /  1007.7 hPa SSW 1.8 mph /  2.9 km/h 4.0 mph /  6.4 km/h 74 % 0.00 in /  0 mm
06:49 34.6 °F /  1.4 °C 27.2 °F /  -2.7 °C 29.76 in /  1007.7 hPa South 1.9 mph /  3.1 km/h 4.6 mph /  7.4 km/h 74 % 0.00 in /  0 mm
06:54 34.7 °F /  1.5 °C 27.6 °F /  -2.4 °C 29.75 in /  1007.3 hPa SSW 2.9 mph /  4.7 km/h 4.6 mph /  7.4 km/h 75 % 0.00 in /  0 mm
06:59 34.7 °F /  1.5 °C 27.6 °F /  -2.4 °C 29.75 in /  1007.3 hPa SSW 3.1 mph /  5 km/h 4.0 mph /  6.4 km/h 75 % 0.00 in /  0 mm
07:04 34.7 °F /  1.5 °C 27.6 °F /  -2.4 °C 29.75 in /  1007.3 hPa SSW 1.6 mph /  2.6 km/h 4.0 mph /  6.4 km/h 75 % 0.00 in /  0 mm
07:09 34.7 °F /  1.5 °C 27.6 °F /  -2.4 °C 29.75 in /  1007.3 hPa SW 3.4 mph /  5.5 km/h 5.8 mph /  9.3 km/h 75 % 0.00 in /  0 mm
07:14 34.8 °F /  1.6 °C 27.7 °F /  -2.4 °C 29.75 in /  1007.3 hPa SW 1.7 mph /  2.7 km/h 4.0 mph /  6.4 km/h 75 % 0.00 in /  0 mm
07:19 34.8 °F /  1.6 °C 27.7 °F /  -2.4 °C 29.75 in /  1007.3 hPa SSW 3.3 mph /  5.3 km/h 5.8 mph /  9.3 km/h 75 % 0.00 in /  0 mm
07:24 34.8 °F /  1.6 °C 27.7 °F /  -2.4 °C 29.75 in /  1007.3 hPa South 2.9 mph /  4.7 km/h 3.5 mph /  5.6 km/h 75 % 0.00 in /  0 mm
07:29 34.9 °F /  1.6 °C 27.8 °F /  -2.3 °C 29.75 in /  1007.3 hPa SW 4.0 mph /  6.4 km/h 8.1 mph /  13 km/h 75 % 0.00 in /  0 mm
07:34 34.9 °F /  1.6 °C 27.8 °F /  -2.3 °C 29.74 in /  1007 hPa SSW 2.7 mph /  4.3 km/h 5.8 mph /  9.3 km/h 75 % 0.00 in /  0 mm
07:40 35.1 °F /  1.7 °C 28.0 °F /  -2.2 °C 29.74 in /  1007 hPa SSW 2.3 mph /  3.7 km/h 5.8 mph /  9.3 km/h 75 % 0.00 in /  0 mm
07:45 35.2 °F /  1.8 °C 28.1 °F /  -2.2 °C 29.74 in /  1007 hPa South 1.2 mph /  1.9 km/h 4.6 mph /  7.4 km/h 75 % 0.00 in /  0 mm
07:50 35.3 °F /  1.8 °C 28.2 °F /  -2.1 °C 29.74 in /  1007 hPa SW 2.2 mph /  3.5 km/h 3.5 mph /  5.6 km/h 75 % 0.00 in /  0 mm
07:55 35.4 °F /  1.9 °C 28.3 °F /  -2.1 °C 29.74 in /  1007 hPa SSW 3.4 mph /  5.5 km/h 6.0 mph /  9.7 km/h 75 % 0.00 in /  0 mm
08:00 35.5 °F /  1.9 °C 28.4 °F /  -2 °C 29.74 in /  1007 hPa SW 1.8 mph /  2.9 km/h 4.6 mph /  7.4 km/h 75 % 0.00 in /  0 mm
08:05 35.6 °F /  2 °C 28.1 °F /  -2.2 °C 29.74 in /  1007 hPa SSW 4.0 mph /  6.4 km/h 6.0 mph /  9.7 km/h 74 % 0.00 in /  0 mm
08:10 35.8 °F /  2.1 °C 28.3 °F /  -2.1 °C 29.74 in /  1007 hPa South 2.3 mph /  3.7 km/h 6.9 mph /  11.1 km/h 74 % 0.00 in /  0 mm
08:15 35.9 °F /  2.2 °C 28.4 °F /  -2 °C 29.74 in /  1007 hPa SSW 2.5 mph /  4 km/h 5.8 mph /  9.3 km/h 74 % 0.00 in /  0 mm
08:20 36.0 °F /  2.2 °C 28.5 °F /  -1.9 °C 29.74 in /  1007 hPa SSW 4.7 mph /  7.6 km/h 6.9 mph /  11.1 km/h 74 % 0.00 in /  0 mm
08:25 36.2 °F /  2.3 °C 28.4 °F /  -2 °C 29.74 in /  1007 hPa South 5.7 mph /  9.2 km/h 9.2 mph /  14.8 km/h 73 % 0.00 in /  0 mm
08:30 36.4 °F /  2.4 °C 28.6 °F /  -1.9 °C 29.73 in /  1006.7 hPa SSW 4.3 mph /  6.9 km/h 6.0 mph /  9.7 km/h 73 % 0.00 in /  0 mm
08:35 36.5 °F /  2.5 °C 28.7 °F /  -1.8 °C 29.73 in /  1006.7 hPa SW 3.6 mph /  5.8 km/h 8.1 mph /  13 km/h 73 % 0.00 in /  0 mm
08:40 36.7 °F /  2.6 °C 28.5 °F /  -1.9 °C 29.74 in /  1007 hPa SSW 2.5 mph /  4 km/h 5.8 mph /  9.3 km/h 72 % 0.00 in /  0 mm
08:45 36.8 °F /  2.7 °C 29.0 °F /  -1.7 °C 29.74 in /  1007 hPa SW 5.2 mph /  8.4 km/h 8.0 mph /  12.9 km/h 73 % 0.00 in /  0 mm
08:50 37.0 °F /  2.8 °C 28.8 °F /  -1.8 °C 29.74 in /  1007 hPa SSW 2.5 mph /  4 km/h 5.8 mph /  9.3 km/h 72 % 0.00 in /  0 mm
08:55 37.1 °F /  2.8 °C 28.9 °F /  -1.7 °C 29.74 in /  1007 hPa SSW 3.4 mph /  5.5 km/h 6.9 mph /  11.1 km/h 72 % 0.00 in /  0 mm
09:00 37.3 °F /  2.9 °C 29.1 °F /  -1.6 °C 29.74 in /  1007 hPa SSW 5.5 mph /  8.9 km/h 8.1 mph /  13 km/h 72 % 0.00 in /  0 mm
09:05 37.4 °F /  3 °C 28.9 °F /  -1.7 °C 29.74 in /  1007 hPa SW 2.1 mph /  3.4 km/h 6.9 mph /  11.1 km/h 71 % 0.00 in /  0 mm
09:10 37.6 °F /  3.1 °C 29.0 °F /  -1.7 °C 29.74 in /  1007 hPa SSW 3.6 mph /  5.8 km/h 5.8 mph /  9.3 km/h 71 % 0.00 in /  0 mm
09:15 37.7 °F /  3.2 °C 29.1 °F /  -1.6 °C 29.74 in /  1007 hPa SW 3.1 mph /  5 km/h 5.8 mph /  9.3 km/h 71 % 0.00 in /  0 mm
09:20 37.9 °F /  3.3 °C 29.3 °F /  -1.5 °C 29.74 in /  1007 hPa SSW 6.1 mph /  9.8 km/h 6.9 mph /  11.1 km/h 71 % 0.00 in /  0 mm
09:25 37.9 °F /  3.3 °C 29.0 °F /  -1.7 °C 29.74 in /  1007 hPa SSW 2.2 mph /  3.5 km/h 6.9 mph /  11.1 km/h 70 % 0.00 in /  0 mm
09:31 38.0 °F /  3.3 °C 29.1 °F /  -1.6 °C 29.74 in /  1007 hPa SSW 3.4 mph /  5.5 km/h 8.1 mph /  13 km/h 70 % 0.00 in /  0 mm
09:36 38.2 °F /  3.4 °C 29.3 °F /  -1.5 °C 29.75 in /  1007.3 hPa SW 2.0 mph /  3.2 km/h 9.0 mph /  14.5 km/h 70 % 0.00 in /  0 mm
09:41 38.3 °F /  3.5 °C 29.4 °F /  -1.4 °C 29.75 in /  1007.3 hPa SW 3.0 mph /  4.8 km/h 8.0 mph /  12.9 km/h 70 % 0.00 in /  0 mm
09:46 38.5 °F /  3.6 °C 29.2 °F /  -1.6 °C 29.74 in /  1007 hPa SW 5.0 mph /  8 km/h 7.0 mph /  11.3 km/h 69 % 0.00 in /  0 mm
09:51 38.6 °F /  3.7 °C 29.3 °F /  -1.5 °C 29.75 in /  1007.3 hPa SSW 2.0 mph /  3.2 km/h 10.0 mph /  16.1 km/h 69 % 0.00 in /  0 mm
09:56 38.7 °F /  3.7 °C 29.4 °F /  -1.4 °C 29.74 in /  1007 hPa SSW 2.0 mph /  3.2 km/h 7.0 mph /  11.3 km/h 69 % 0.00 in /  0 mm
10:01 38.9 °F /  3.8 °C 29.6 °F /  -1.3 °C 29.74 in /  1007 hPa South 4.4 mph /  7.1 km/h 8.1 mph /  13 km/h 69 % 0.00 in /  0 mm
10:06 39.2 °F /  4 °C 29.9 °F /  -1.2 °C 29.74 in /  1007 hPa SSW 3.6 mph /  5.8 km/h 9.2 mph /  14.8 km/h 69 % 0.00 in /  0 mm
10:11 39.6 °F /  4.2 °C 30.3 °F /  -0.9 °C 29.74 in /  1007 hPa SSW 5.3 mph /  8.5 km/h 10.0 mph /  16.1 km/h 69 % 0.00 in /  0 mm
10:16 40.0 °F /  4.4 °C 29.9 °F /  -1.2 °C 29.74 in /  1007 hPa SSW 2.8 mph /  4.5 km/h 6.9 mph /  11.1 km/h 67 % 0.00 in /  0 mm
10:21 40.5 °F /  4.7 °C 30.4 °F /  -0.9 °C 29.74 in /  1007 hPa South 3.9 mph /  6.3 km/h 11.5 mph /  18.5 km/h 67 % 0.00 in /  0 mm
10:26 40.9 °F /  4.9 °C 30.4 °F /  -0.9 °C 29.75 in /  1007.3 hPa South 4.2 mph /  6.8 km/h 6.9 mph /  11.1 km/h 66 % 0.00 in /  0 mm
10:31 41.1 °F /  5.1 °C 30.6 °F /  -0.8 °C 29.75 in /  1007.3 hPa SSW 1.9 mph /  3.1 km/h 3.5 mph /  5.6 km/h 66 % 0.00 in /  0 mm
10:36 41.3 °F /  5.2 °C 30.4 °F /  -0.9 °C 29.74 in /  1007 hPa SSW 3.4 mph /  5.5 km/h 4.6 mph /  7.4 km/h 65 % 0.00 in /  0 mm
10:41 41.5 °F /  5.3 °C 30.2 °F /  -1 °C 29.74 in /  1007 hPa SSW 5.1 mph /  8.2 km/h 6.9 mph /  11.1 km/h 64 % 0.00 in /  0 mm
10:46 41.6 °F /  5.3 °C 30.7 °F /  -0.7 °C 29.74 in /  1007 hPa SSW 4.0 mph /  6.4 km/h 5.0 mph /  8 km/h 65 % 0.00 in /  0 mm
10:51 41.8 °F /  5.4 °C 30.9 °F /  -0.6 °C 29.74 in /  1007 hPa SSW 1.5 mph /  2.4 km/h 4.0 mph /  6.4 km/h 65 % 0.00 in /  0 mm
10:56 41.9 °F /  5.5 °C 30.6 °F /  -0.8 °C 29.74 in /  1007 hPa SSW 1.4 mph /  2.3 km/h 6.0 mph /  9.7 km/h 64 % 0.00 in /  0 mm
11:01 42.0 °F /  5.6 °C 30.7 °F /  -0.7 °C 29.74 in /  1007 hPa SSW 2.1 mph /  3.4 km/h 6.0 mph /  9.7 km/h 64 % 0.00 in /  0 mm
11:06 42.1 °F /  5.6 °C 30.4 °F /  -0.9 °C 29.74 in /  1007 hPa WSW 2.5 mph /  4 km/h 3.5 mph /  5.6 km/h 63 % 0.00 in /  0 mm
11:11 42.2 °F /  5.7 °C 30.5 °F /  -0.8 °C 29.73 in /  1006.7 hPa SW 4.9 mph /  7.9 km/h 5.8 mph /  9.3 km/h 63 % 0.00 in /  0 mm
11:17 42.2 °F /  5.7 °C 30.5 °F /  -0.8 °C 29.74 in /  1007 hPa SW 2.7 mph /  4.3 km/h 4.0 mph /  6.4 km/h 63 % 0.00 in /  0 mm
11:22 42.2 °F /  5.7 °C 30.5 °F /  -0.8 °C 29.73 in /  1006.7 hPa South 2.6 mph /  4.2 km/h 6.9 mph /  11.1 km/h 63 % 0.00 in /  0 mm
11:27 42.2 °F /  5.7 °C 30.5 °F /  -0.8 °C 29.73 in /  1006.7 hPa West 4.4 mph /  7.1 km/h 8.1 mph /  13 km/h 63 % 0.00 in /  0 mm
11:32 42.2 °F /  5.7 °C 30.1 °F /  -1.1 °C 29.73 in /  1006.7 hPa SSW 2.4 mph /  3.9 km/h 6.0 mph /  9.7 km/h 62 % 0.00 in /  0 mm
11:37 42.3 °F /  5.7 °C 30.6 °F /  -0.8 °C 29.72 in /  1006.3 hPa SW 5.2 mph /  8.4 km/h 6.9 mph /  11.1 km/h 63 % 0.00 in /  0 mm
11:42 42.3 °F /  5.7 °C 30.2 °F /  -1 °C 29.72 in /  1006.3 hPa WSW 3.6 mph /  5.8 km/h 6.9 mph /  11.1 km/h 62 % 0.00 in /  0 mm
11:47 42.4 °F /  5.8 °C 30.7 °F /  -0.7 °C 29.71 in /  1006 hPa South 1.8 mph /  2.9 km/h 4.6 mph /  7.4 km/h 63 % 0.00 in /  0 mm
11:52 42.5 °F /  5.8 °C 30.8 °F /  -0.7 °C 29.70 in /  1005.6 hPa South 1.4 mph /  2.3 km/h 5.0 mph /  8 km/h 63 % 0.00 in /  0 mm
11:57 42.6 °F /  5.9 °C 30.9 °F /  -0.6 °C 29.70 in /  1005.6 hPa SSW 1.5 mph /  2.4 km/h 4.0 mph /  6.4 km/h 63 % 0.00 in /  0 mm
12:02 42.5 °F /  5.8 °C 30.8 °F /  -0.7 °C 29.70 in /  1005.6 hPa South 3.3 mph /  5.3 km/h 4.6 mph /  7.4 km/h 63 % 0.00 in /  0 mm
12:07 42.7 °F /  5.9 °C 31.4 °F /  -0.3 °C 29.70 in /  1005.6 hPa SSW 3.4 mph /  5.5 km/h 4.6 mph /  7.4 km/h 64 % 0.00 in /  0 mm
12:12 42.7 °F /  5.9 °C 31.0 °F /  -0.6 °C 29.69 in /  1005.3 hPa SSW 3.8 mph /  6.1 km/h 8.1 mph /  13 km/h 63 % 0.00 in /  0 mm
12:17 42.7 °F /  5.9 °C 30.6 °F /  -0.8 °C 29.69 in /  1005.3 hPa SSE 2.1 mph /  3.4 km/h 6.9 mph /  11.1 km/h 62 % 0.00 in /  0 mm
12:22 42.6 °F /  5.9 °C 30.9 °F /  -0.6 °C 29.69 in /  1005.3 hPa South 2.2 mph /  3.5 km/h 5.8 mph /  9.3 km/h 63 % 0.00 in /  0 mm
12:27 42.7 °F /  5.9 °C 31.0 °F /  -0.6 °C 29.69 in /  1005.3 hPa SSW 2.8 mph /  4.5 km/h 4.6 mph /  7.4 km/h 63 % 0.00 in /  0 mm
12:32 42.7 °F /  5.9 °C 31.4 °F /  -0.3 °C 29.70 in /  1005.6 hPa South 3.8 mph /  6.1 km/h 6.9 mph /  11.1 km/h 64 % 0.00 in /  0 mm
12:37 42.7 °F /  5.9 °C 31.0 °F /  -0.6 °C 29.69 in /  1005.3 hPa SSW 1.5 mph /  2.4 km/h 3.5 mph /  5.6 km/h 63 % 0.00 in /  0 mm
12:42 42.7 °F /  5.9 °C 31.4 °F /  -0.3 °C 29.70 in /  1005.6 hPa SW 1.5 mph /  2.4 km/h 5.8 mph /  9.3 km/h 64 % 0.00 in /  0 mm
12:48 42.7 °F /  5.9 °C 31.4 °F /  -0.3 °C 29.69 in /  1005.3 hPa SSW 2.4 mph /  3.9 km/h 4.6 mph /  7.4 km/h 64 % 0.00 in /  0 mm
12:53 42.8 °F /  6 °C 31.5 °F /  -0.3 °C 29.68 in /  1005 hPa SE 0.9 mph /  1.4 km/h 5.8 mph /  9.3 km/h 64 % 0.00 in /  0 mm
12:58 42.7 °F /  5.9 °C 31.0 °F /  -0.6 °C 29.68 in /  1005 hPa South 2.2 mph /  3.5 km/h 3.5 mph /  5.6 km/h 63 % 0.00 in /  0 mm
13:03 42.8 °F /  6 °C 31.1 °F /  -0.5 °C 29.68 in /  1005 hPa SSW 1.9 mph /  3.1 km/h 4.6 mph /  7.4 km/h 63 % 0.00 in /  0 mm
13:08 42.8 °F /  6 °C 31.5 °F /  -0.3 °C 29.68 in /  1005 hPa WSW 3.3 mph /  5.3 km/h 9.2 mph /  14.8 km/h 64 % 0.00 in /  0 mm
13:13 42.8 °F /  6 °C 31.5 °F /  -0.3 °C 29.68 in /  1005 hPa South 3.6 mph /  5.8 km/h 4.6 mph /  7.4 km/h 64 % 0.00 in /  0 mm
13:18 42.9 °F /  6.1 °C 31.9 °F /  -0.1 °C 29.68 in /  1005 hPa South 0.5 mph /  0.8 km/h 2.3 mph /  3.7 km/h 65 % 0.00 in /  0 mm
13:23 42.9 °F /  6.1 °C 31.9 °F /  -0.1 °C 29.68 in /  1005 hPa SW 3.2 mph /  5.1 km/h 4.6 mph /  7.4 km/h 65 % 0.00 in /  0 mm
13:28 42.9 °F /  6.1 °C 31.6 °F /  -0.2 °C 29.68 in /  1005 hPa SSW 3.3 mph /  5.3 km/h 5.0 mph /  8 km/h 64 % 0.00 in /  0 mm
13:33 43.0 °F /  6.1 °C 31.6 °F /  -0.2 °C 29.68 in /  1005 hPa South 0.8 mph /  1.3 km/h 3.5 mph /  5.6 km/h 64 % 0.00 in /  0 mm
13:38 43.1 °F /  6.2 °C 31.7 °F /  -0.2 °C 29.67 in /  1004.6 hPa WSW 2.5 mph /  4 km/h 3.5 mph /  5.6 km/h 64 % 0.00 in /  0 mm
13:43 43.3 °F /  6.3 °C 32.3 °F /  0.2 °C 29.67 in /  1004.6 hPa SSW 3.4 mph /  5.5 km/h 4.0 mph /  6.4 km/h 65 % 0.00 in /  0 mm
13:48 43.3 °F /  6.3 °C 31.5 °F /  -0.3 °C 29.67 in /  1004.6 hPa SSE 1.7 mph /  2.7 km/h 3.5 mph /  5.6 km/h 63 % 0.00 in /  0 mm
13:53 43.4 °F /  6.3 °C 32.0 °F /  0 °C 29.67 in /  1004.6 hPa South 2.5 mph /  4 km/h 7.0 mph /  11.3 km/h 64 % 0.00 in /  0 mm
13:58 43.4 °F /  6.3 °C 32.0 °F /  0 °C 29.67 in /  1004.6 hPa South 0.5 mph /  0.8 km/h 2.3 mph /  3.7 km/h 64 % 0.00 in /  0 mm
14:03 43.4 °F /  6.3 °C 32.4 °F /  0.2 °C 29.67 in /  1004.6 hPa South 1.0 mph /  1.6 km/h 1.2 mph /  1.9 km/h 65 % 0.00 in /  0 mm
14:08 43.3 °F /  6.3 °C 31.5 °F /  -0.3 °C 29.67 in /  1004.6 hPa SW 1.4 mph /  2.3 km/h 3.5 mph /  5.6 km/h 63 % 0.00 in /  0 mm
14:14 43.3 °F /  6.3 °C 31.5 °F /  -0.3 °C 29.67 in /  1004.6 hPa SSW 0.8 mph /  1.3 km/h 2.3 mph /  3.7 km/h 63 % 0.00 in /  0 mm
14:19 43.4 °F /  6.3 °C 31.6 °F /  -0.2 °C 29.67 in /  1004.6 hPa SW 1.4 mph /  2.3 km/h 6.9 mph /  11.1 km/h 63 % 0.00 in /  0 mm
14:24 43.3 °F /  6.3 °C 31.5 °F /  -0.3 °C 29.67 in /  1004.6 hPa South 3.2 mph /  5.1 km/h 6.9 mph /  11.1 km/h 63 % 0.00 in /  0 mm
14:29 43.1 °F /  6.2 °C 31.4 °F /  -0.3 °C 29.67 in /  1004.6 hPa SSE 1.0 mph /  1.6 km/h 3.5 mph /  5.6 km/h 63 % 0.00 in /  0 mm
14:34 43.1 °F /  6.2 °C 31.7 °F /  -0.2 °C 29.66 in /  1004.3 hPa SSW 3.5 mph /  5.6 km/h 5.0 mph /  8 km/h 64 % 0.00 in /  0 mm
14:39 43.1 °F /  6.2 °C 31.7 °F /  -0.2 °C 29.66 in /  1004.3 hPa SW 1.6 mph /  2.6 km/h 3.5 mph /  5.6 km/h 64 % 0.00 in /  0 mm
14:44 43.1 °F /  6.2 °C 31.7 °F /  -0.2 °C 29.66 in /  1004.3 hPa SSW 2.4 mph /  3.9 km/h 3.5 mph /  5.6 km/h 64 % 0.00 in /  0 mm
14:49 43.1 °F /  6.2 °C 31.7 °F /  -0.2 °C 29.67 in /  1004.6 hPa South 2.2 mph /  3.5 km/h 4.0 mph /  6.4 km/h 64 % 0.00 in /  0 mm
14:54 43.1 °F /  6.2 °C 31.7 °F /  -0.2 °C 29.67 in /  1004.6 hPa South 2.5 mph /  4 km/h 3.5 mph /  5.6 km/h 64 % 0.00 in /  0 mm
14:59 43.0 °F /  6.1 °C 31.6 °F /  -0.2 °C 29.66 in /  1004.3 hPa SSW 2.4 mph /  3.9 km/h 5.8 mph /  9.3 km/h 64 % 0.00 in /  0 mm
15:04 42.8 °F /  6 °C 31.8 °F /  -0.1 °C 29.66 in /  1004.3 hPa SSW 3.3 mph /  5.3 km/h 4.6 mph /  7.4 km/h 65 % 0.00 in /  0 mm
15:09 42.7 °F /  5.9 °C 31.7 °F /  -0.2 °C 29.66 in /  1004.3 hPa SSW 3.4 mph /  5.5 km/h 5.0 mph /  8 km/h 65 % 0.00 in /  0 mm
15:14 42.6 °F /  5.9 °C 32.0 °F /  0 °C 29.66 in /  1004.3 hPa South 2.2 mph /  3.5 km/h 3.5 mph /  5.6 km/h 66 % 0.00 in /  0 mm
15:19 42.5 °F /  5.8 °C 32.3 °F /  0.2 °C 29.66 in /  1004.3 hPa South 1.6 mph /  2.6 km/h 3.5 mph /  5.6 km/h 67 % 0.00 in /  0 mm
15:24 42.4 °F /  5.8 °C 32.2 °F /  0.1 °C 29.66 in /  1004.3 hPa SSW 3.1 mph /  5 km/h 3.5 mph /  5.6 km/h 67 % 0.00 in /  0 mm
15:30 42.3 °F /  5.7 °C 32.1 °F /  0.1 °C 29.66 in /  1004.3 hPa SSW 2.3 mph /  3.7 km/h 5.0 mph /  8 km/h 67 % 0.00 in /  0 mm
15:35 42.2 °F /  5.7 °C 32.0 °F /  0 °C 29.66 in /  1004.3 hPa SSW 1.4 mph /  2.3 km/h 5.8 mph /  9.3 km/h 67 % 0.00 in /  0 mm
15:40 42.2 °F /  5.7 °C 32.4 °F /  0.2 °C 29.67 in /  1004.6 hPa SSW 0.4 mph /  0.6 km/h 3.5 mph /  5.6 km/h 68 % 0.00 in /  0 mm
15:45 42.1 °F /  5.6 °C 32.7 °F /  0.4 °C 29.67 in /  1004.6 hPa South 1.5 mph /  2.4 km/h 6.9 mph /  11.1 km/h 69 % 0.00 in /  0 mm
15:50 41.9 °F /  5.5 °C 32.8 °F /  0.4 °C 29.67 in /  1004.6 hPa South 0.6 mph /  1 km/h 3.5 mph /  5.6 km/h 70 % 0.00 in /  0 mm
15:55 41.9 °F /  5.5 °C 32.8 °F /  0.4 °C 29.67 in /  1004.6 hPa South 2.0 mph /  3.2 km/h 5.8 mph /  9.3 km/h 70 % 0.00 in /  0 mm
16:00 41.8 °F /  5.4 °C 32.7 °F /  0.4 °C 29.67 in /  1004.6 hPa SW 1.6 mph /  2.6 km/h 3.5 mph /  5.6 km/h 70 % 0.00 in /  0 mm
16:05 41.7 °F /  5.4 °C 32.6 °F /  0.3 °C 29.67 in /  1004.6 hPa South 1.4 mph /  2.3 km/h 3.5 mph /  5.6 km/h 70 % 0.00 in /  0 mm
16:10 41.6 °F /  5.3 °C 32.5 °F /  0.3 °C 29.66 in /  1004.3 hPa SSW 1.5 mph /  2.4 km/h 6.0 mph /  9.7 km/h 70 % 0.00 in /  0 mm
16:15 41.5 °F /  5.3 °C 32.4 °F /  0.2 °C 29.67 in /  1004.6 hPa South 3.5 mph /  5.6 km/h 4.6 mph /  7.4 km/h 70 % 0.00 in /  0 mm
16:20 41.4 °F /  5.2 °C 32.3 °F /  0.2 °C 29.67 in /  1004.6 hPa SSW 1.1 mph /  1.8 km/h 3.5 mph /  5.6 km/h 70 % 0.00 in /  0 mm
16:25 41.4 °F /  5.2 °C 32.3 °F /  0.2 °C 29.67 in /  1004.6 hPa SSW 1.3 mph /  2.1 km/h 3.5 mph /  5.6 km/h 70 % 0.00 in /  0 mm
16:30 41.3 °F /  5.2 °C 32.2 °F /  0.1 °C 29.67 in /  1004.6 hPa SSW 1.6 mph /  2.6 km/h 4.0 mph /  6.4 km/h 70 % 0.00 in /  0 mm
16:36 41.2 °F /  5.1 °C 32.2 °F /  0.1 °C 29.67 in /  1004.6 hPa Calm     70 % 0.00 in /  0 mm
16:41 41.1 °F /  5.1 °C 32.4 °F /  0.2 °C 29.67 in /  1004.6 hPa South 1.0 mph /  1.6 km/h 5.0 mph /  8 km/h 71 % 0.00 in /  0 mm
16:46 41.0 °F /  5 °C 32.3 °F /  0.2 °C 29.67 in /  1004.6 hPa South 1.0 mph /  1.6 km/h 7.0 mph /  11.3 km/h 71 % 0.00 in /  0 mm
16:51 40.9 °F /  4.9 °C 32.6 °F /  0.3 °C 29.66 in /  1004.3 hPa South 2.9 mph /  4.7 km/h 4.6 mph /  7.4 km/h 72 % 0.00 in /  0 mm
16:56 40.8 °F /  4.9 °C 32.5 °F /  0.3 °C 29.67 in /  1004.6 hPa South 1.2 mph /  1.9 km/h 3.5 mph /  5.6 km/h 72 % 0.00 in /  0 mm
17:01 40.7 °F /  4.8 °C 32.7 °F /  0.4 °C 29.67 in /  1004.6 hPa SSW 0.8 mph /  1.3 km/h 3.5 mph /  5.6 km/h 73 % 0.00 in /  0 mm
17:06 40.6 °F /  4.8 °C 32.6 °F /  0.3 °C 29.67 in /  1004.6 hPa SW 1.5 mph /  2.4 km/h 3.5 mph /  5.6 km/h 73 % 0.00 in /  0 mm
17:11 40.6 °F /  4.8 °C 32.6 °F /  0.3 °C 29.67 in /  1004.6 hPa SW 0.9 mph /  1.4 km/h 3.5 mph /  5.6 km/h 73 % 0.00 in /  0 mm
17:16 40.5 °F /  4.7 °C 32.5 °F /  0.3 °C 29.67 in /  1004.6 hPa WSW 0.9 mph /  1.4 km/h 3.5 mph /  5.6 km/h 73 % 0.00 in /  0 mm
17:21 40.5 °F /  4.7 °C 32.5 °F /  0.3 °C 29.66 in /  1004.3 hPa WSW 0.1 mph /  0.2 km/h 1.2 mph /  1.9 km/h 73 % 0.00 in /  0 mm
17:26 40.4 °F /  4.7 °C 32.4 °F /  0.2 °C 29.67 in /  1004.6 hPa SW 0.5 mph /  0.8 km/h 1.0 mph /  1.6 km/h 73 % 0.00 in /  0 mm
17:31 40.4 °F /  4.7 °C 32.4 °F /  0.2 °C 29.67 in /  1004.6 hPa South 0.2 mph /  0.3 km/h 1.2 mph /  1.9 km/h 73 % 0.00 in /  0 mm
17:36 40.4 °F /  4.7 °C 32.8 °F /  0.4 °C 29.67 in /  1004.6 hPa South 0.3 mph /  0.5 km/h 2.0 mph /  3.2 km/h 74 % 0.00 in /  0 mm
17:41 40.3 °F /  4.6 °C 32.7 °F /  0.4 °C 29.67 in /  1004.6 hPa South 0.2 mph /  0.3 km/h 1.2 mph /  1.9 km/h 74 % 0.00 in /  0 mm
17:46 40.3 °F /  4.6 °C 33.0 °F /  0.6 °C 29.67 in /  1004.6 hPa South 1.2 mph /  1.9 km/h 3.5 mph /  5.6 km/h 75 % 0.00 in /  0 mm
17:51 40.2 °F /  4.6 °C 33.2 °F /  0.7 °C 29.67 in /  1004.6 hPa SSW 0.2 mph /  0.3 km/h 3.5 mph /  5.6 km/h 76 % 0.00 in /  0 mm
17:56 40.2 °F /  4.6 °C 33.2 °F /  0.7 °C 29.67 in /  1004.6 hPa Calm     76 % 0.00 in /  0 mm
18:01 40.1 °F /  4.5 °C 33.5 °F /  0.8 °C 29.67 in /  1004.6 hPa SW 0.1 mph /  0.2 km/h 2.3 mph /  3.7 km/h 77 % 0.00 in /  0 mm
18:06 40.1 °F /  4.5 °C 33.5 °F /  0.8 °C 29.67 in /  1004.6 hPa Calm     77 % 0.00 in /  0 mm
18:11 40.1 °F /  4.5 °C 33.5 °F /  0.8 °C 29.67 in /  1004.6 hPa Calm     77 % 0.00 in /  0 mm
18:17 40.1 °F /  4.5 °C 33.8 °F /  1 °C 29.68 in /  1005 hPa SW 0.5 mph /  0.8 km/h 1.0 mph /  1.6 km/h 78 % 0.00 in /  0 mm
18:22 40.0 °F /  4.4 °C 33.7 °F /  0.9 °C 29.68 in /  1005 hPa Calm   2.3 mph /  3.7 km/h 78 % 0.00 in /  0 mm
18:27 40.0 °F /  4.4 °C 33.7 °F /  0.9 °C 29.68 in /  1005 hPa SW 0.6 mph /  1 km/h   78 % 0.00 in /  0 mm
18:32 40.0 °F /  4.4 °C 34.0 °F /  1.1 °C 29.67 in /  1004.6 hPa Calm     79 % 0.00 in /  0 mm
18:37 40.0 °F /  4.4 °C 34.0 °F /  1.1 °C 29.67 in /  1004.6 hPa Calm     79 % 0.00 in /  0 mm
18:42 40.0 °F /  4.4 °C 34.3 °F /  1.3 °C 29.67 in /  1004.6 hPa Calm     80 % 0.00 in /  0 mm
18:47 40.0 °F /  4.4 °C 34.3 °F /  1.3 °C 29.67 in /  1004.6 hPa Calm     80 % 0.00 in /  0 mm
18:52 39.9 °F /  4.4 °C 34.2 °F /  1.2 °C 29.67 in /  1004.6 hPa Calm     80 % 0.00 in /  0 mm
18:57 39.9 °F /  4.4 °C 34.2 °F /  1.2 °C 29.67 in /  1004.6 hPa Calm     80 % 0.00 in /  0 mm
19:02 39.8 °F /  4.3 °C 34.1 °F /  1.2 °C 29.67 in /  1004.6 hPa Calm     80 % 0.00 in /  0 mm
19:07 39.8 °F /  4.3 °C 34.1 °F /  1.2 °C 29.67 in /  1004.6 hPa Calm     80 % 0.00 in /  0 mm
19:12 39.8 °F /  4.3 °C 34.8 °F /  1.6 °C 29.67 in /  1004.6 hPa Calm     82 % 0.00 in /  0 mm
19:17 39.7 °F /  4.3 °C 35.0 °F /  1.7 °C 29.66 in /  1004.3 hPa Calm     83 % 0.00 in /  0 mm
19:22 39.7 °F /  4.3 °C 34.7 °F /  1.5 °C 29.66 in /  1004.3 hPa Calm     82 % 0.00 in /  0 mm
19:27 39.6 °F /  4.2 °C 34.6 °F /  1.4 °C 29.67 in /  1004.6 hPa Calm     82 % 0.00 in /  0 mm
19:32 39.6 °F /  4.2 °C 34.9 °F /  1.6 °C 29.67 in /  1004.6 hPa Calm     83 % 0.00 in /  0 mm
19:37 39.6 °F /  4.2 °C 35.2 °F /  1.8 °C 29.67 in /  1004.6 hPa Calm     84 % 0.00 in /  0 mm
19:42 39.5 °F /  4.2 °C 35.1 °F /  1.7 °C 29.68 in /  1005 hPa Calm     84 % 0.00 in /  0 mm
19:48 39.5 °F /  4.2 °C 35.1 °F /  1.7 °C 29.67 in /  1004.6 hPa Calm     84 % 0.00 in /  0 mm
19:53 39.4 °F /  4.1 °C 35.0 °F /  1.7 °C 29.67 in /  1004.6 hPa Calm     84 % 0.00 in /  0 mm
19:58 39.4 °F /  4.1 °C 35.0 °F /  1.7 °C 29.67 in /  1004.6 hPa Calm     84 % 0.00 in /  0 mm
20:03 39.3 °F /  4.1 °C 35.2 °F /  1.8 °C 29.67 in /  1004.6 hPa Calm     85 % 0.00 in /  0 mm
20:08 39.3 °F /  4.1 °C 35.5 °F /  1.9 °C 29.67 in /  1004.6 hPa Calm     86 % 0.00 in /  0 mm
20:13 39.3 °F /  4.1 °C 35.8 °F /  2.1 °C 29.67 in /  1004.6 hPa Calm     87 % 0.00 in /  0 mm
20:18 39.2 °F /  4 °C 35.7 °F /  2.1 °C 29.67 in /  1004.6 hPa Calm     87 % 0.00 in /  0 mm
20:23 39.2 °F /  4 °C 35.7 °F /  2.1 °C 29.66 in /  1004.3 hPa Calm     87 % 0.00 in /  0 mm
20:28 39.1 °F /  3.9 °C 35.6 °F /  2 °C 29.67 in /  1004.6 hPa Calm     87 % 0.00 in /  0 mm
20:33 39.1 °F /  3.9 °C 35.6 °F /  2 °C 29.66 in /  1004.3 hPa Calm     87 % 0.00 in /  0 mm
20:38 39.0 °F /  3.9 °C 35.5 °F /  1.9 °C 29.65 in /  1003.9 hPa Calm     87 % 0.00 in /  0 mm
20:43 38.9 °F /  3.8 °C 35.4 °F /  1.9 °C 29.65 in /  1003.9 hPa Calm     87 % 0.00 in /  0 mm
20:48 38.9 °F /  3.8 °C 35.4 °F /  1.9 °C 29.65 in /  1003.9 hPa Calm     87 % 0.00 in /  0 mm
20:53 38.8 °F /  3.8 °C 35.3 °F /  1.8 °C 29.64 in /  1003.6 hPa Calm     87 % 0.00 in /  0 mm
20:58 38.6 °F /  3.7 °C 35.1 °F /  1.7 °C 29.64 in /  1003.6 hPa Calm     87 % 0.00 in /  0 mm
21:03 38.5 °F /  3.6 °C 35.0 °F /  1.7 °C 29.64 in /  1003.6 hPa Calm     87 % 0.00 in /  0 mm
21:08 38.4 °F /  3.6 °C 34.9 °F /  1.6 °C 29.64 in /  1003.6 hPa Calm     87 % 0.00 in /  0 mm
21:13 38.3 °F /  3.5 °C 34.8 °F /  1.6 °C 29.64 in /  1003.6 hPa Calm     87 % 0.00 in /  0 mm
21:18 38.3 °F /  3.5 °C 34.8 °F /  1.6 °C 29.64 in /  1003.6 hPa Calm     87 % 0.00 in /  0 mm
21:24 38.2 °F /  3.4 °C 34.7 °F /  1.5 °C 29.63 in /  1003.3 hPa Calm     87 % 0.00 in /  0 mm
21:29 38.2 °F /  3.4 °C 34.7 °F /  1.5 °C 29.62 in /  1002.9 hPa Calm     87 % 0.00 in /  0 mm
21:34 38.1 °F /  3.4 °C 34.6 °F /  1.4 °C 29.61 in /  1002.6 hPa Calm     87 % 0.00 in /  0 mm
21:39 38.0 °F /  3.3 °C 34.5 °F /  1.4 °C 29.61 in /  1002.6 hPa Calm     87 % 0.00 in /  0 mm
21:44 38.0 °F /  3.3 °C 34.8 °F /  1.6 °C 29.61 in /  1002.6 hPa Calm     88 % 0.00 in /  0 mm
21:49 38.0 °F /  3.3 °C 34.8 °F /  1.6 °C 29.61 in /  1002.6 hPa Calm     88 % 0.00 in /  0 mm
21:54 38.0 °F /  3.3 °C 35.0 °F /  1.7 °C 29.61 in /  1002.6 hPa Calm     89 % 0.00 in /  0 mm
21:59 38.0 °F /  3.3 °C 35.0 °F /  1.7 °C 29.61 in /  1002.6 hPa Calm     89 % 0.00 in /  0 mm
22:04 38.0 °F /  3.3 °C 35.0 °F /  1.7 °C 29.61 in /  1002.6 hPa Calm     89 % 0.00 in /  0 mm
22:09 38.0 °F /  3.3 °C 35.3 °F /  1.8 °C 29.61 in /  1002.6 hPa Calm     90 % 0.00 in /  0 mm
22:14 38.0 °F /  3.3 °C 35.3 °F /  1.8 °C 29.60 in /  1002.3 hPa Calm     90 % 0.00 in /  0 mm
22:19 38.0 °F /  3.3 °C 35.3 °F /  1.8 °C 29.59 in /  1001.9 hPa Calm     90 % 0.00 in /  0 mm
22:24 38.0 °F /  3.3 °C 35.3 °F /  1.8 °C 29.59 in /  1001.9 hPa Calm     90 % 0.00 in /  0 mm
22:29 38.0 °F /  3.3 °C 35.3 °F /  1.8 °C 29.59 in /  1001.9 hPa Calm     90 % 0.00 in /  0 mm
22:34 38.0 °F /  3.3 °C 35.3 °F /  1.8 °C 29.59 in /  1001.9 hPa Calm     90 % 0.00 in /  0 mm
22:39 38.0 °F /  3.3 °C 35.3 °F /  1.8 °C 29.59 in /  1001.9 hPa Calm     90 % 0.00 in /  0 mm
22:44 37.9 °F /  3.3 °C 35.2 °F /  1.8 °C 29.59 in /  1001.9 hPa Calm     90 % 0.00 in /  0 mm
22:49 37.9 °F /  3.3 °C 35.2 °F /  1.8 °C 29.60 in /  1002.3 hPa Calm     90 % 0.00 in /  0 mm
22:54 37.9 °F /  3.3 °C 35.2 °F /  1.8 °C 29.59 in /  1001.9 hPa Calm     90 % 0.00 in /  0 mm
22:59 37.9 °F /  3.3 °C 35.2 °F /  1.8 °C 29.59 in /  1001.9 hPa Calm     90 % 0.00 in /  0 mm
23:05 37.8 °F /  3.2 °C 35.1 °F /  1.7 °C 29.60 in /  1002.3 hPa Calm     90 % 0.00 in /  0 mm
23:10 37.9 °F /  3.3 °C 35.5 °F /  1.9 °C 29.59 in /  1001.9 hPa Calm     91 % 0.00 in /  0 mm
23:15 37.8 °F /  3.2 °C 35.4 °F /  1.9 °C 29.59 in /  1001.9 hPa Calm     91 % 0.00 in /  0 mm
23:20 37.9 °F /  3.3 °C 35.5 °F /  1.9 °C 29.59 in /  1001.9 hPa Calm   1.2 mph /  1.9 km/h 91 % 0.00 in /  0 mm
23:25 37.9 °F /  3.3 °C 35.8 °F /  2.1 °C 29.59 in /  1001.9 hPa WSW 1.5 mph /  2.4 km/h 2.3 mph /  3.7 km/h 92 % 0.00 in /  0 mm
23:30 37.9 °F /  3.3 °C 35.8 °F /  2.1 °C 29.59 in /  1001.9 hPa Calm     92 % 0.00 in /  0 mm
23:35 37.9 °F /  3.3 °C 35.8 °F /  2.1 °C 29.59 in /  1001.9 hPa NNW 0.6 mph /  1 km/h 3.0 mph /  4.8 km/h 92 % 0.00 in /  0 mm
23:40 37.9 °F /  3.3 °C 36.1 °F /  2.3 °C 29.60 in /  1002.3 hPa NNW 2.5 mph /  4 km/h 3.5 mph /  5.6 km/h 93 % 0.00 in /  0 mm
23:45 37.7 °F /  3.2 °C 35.6 °F /  2 °C 29.59 in /  1001.9 hPa NNW 1.8 mph /  2.9 km/h 3.5 mph /  5.6 km/h 92 % 0.00 in /  0 mm
23:50 37.5 °F /  3.1 °C 35.4 °F /  1.9 °C 29.59 in /  1001.9 hPa NNW 1.1 mph /  1.8 km/h 2.3 mph /  3.7 km/h 92 % 0.00 in /  0 mm
23:55 37.4 °F /  3 °C 35.3 °F /  1.8 °C 29.59 in /  1001.9 hPa North 0.3 mph /  0.5 km/h 3.5 mph /  5.6 km/h 92 % 0.00 in /  0 mm
Crab Meadow Weather
Compliments of Weather Underground - 3 mb

Script developed by  Jim McMurry - jmcmurry@mwt.net Adapted for the template by  Wim van der Kuil - Leuven-Template.eu

Extremes: Alaska and Hawaii have the same heat record. In Pahala, Hawaii the temperature on April 27, 1931 was 100 degrees F. Alaska's state heat record is also 100 degrees F. on June 27, 1915 at Fort Yukon.